Weather History for Cecil Field, FL

Change the Weather History Date:

Monday, October 15, 2012

  Actual Average (KJAX) Record (KJAX)
Temperature  
Mean Temperature 73 °F 71 °F  
Max Temperature 84 °F 81 °F 90 °F (1990)
Min Temperature 62 °F 61 °F 40 °F (1977)
Degree Days  
Heating Degree Days 0 1  
Month to date heating degree days 3  
Since 1 July heating degree days 3  
Cooling Degree Days 8 6  
Month to date cooling degree days 122  
Year to date cooling degree days 2508  
Growing Degree Days 23 (Base 50)    
Moisture  
Dew Point 67 °F    
Average Humidity 94    
Maximum Humidity 100    
Minimum Humidity 58    
Precipitation  
Precipitation 0.00 in 0.13 in 2.24 in (1922)
Month to date precipitation 2.53  
Year to date precipitation 46.08  
Snow  
Snow 0.00 in 0.00 in 0.00 in (2002)
Month to date snowfall 0.0  
Since 1 July snowfall 0.0  
Since 1 September snowfall 0.0  
Snow Depth -    
Sea Level Pressure  
Sea Level Pressure 29.93 in    
Wind  
Wind Speed 0 mph (West)    
Max Wind Speed 9 mph    
Max Gust Speed -    
Visibility 7 miles    
Events Fog    
T = Trace of Precipitation, MM = Missing Value Source: NWS Daily Summary

Daily Weather History Graph

Daily Weather History Graph

Search for Another Location

Airport:

Trip Planner

Search our weather history database for the weather conditions in past years. The results will help you decide how hot, cold, wet, or windy it might be!

Date:

Astronomy

Oct. 15, 2012 Rise Set
Actual Time 7:29 AM EDT 6:55 PM EDT
Civil Twilight 7:05 AM EDT 7:20 PM EDT
Nautical Twilight 6:37 AM EDT 7:48 PM EDT
Astronomical Twilight 6:09 AM EDT 8:15 PM EDT
Moon 7:34 AM EDT (10/15) 7:00 PM EDT (10/15)
Length of Visible Light 12h 14m
Length of Day
11h 26m
Waxing Crescent, 0% of the Moon is Illuminated
Oct 15
Waxing Crescent
Oct 21
First Quarter
Oct 29
Full
Nov 6
Last Quarter
Nov 13
New

Hourly Weather History & Observations

Time (EDT) Temp. Heat Index Dew Point Humidity Pressure Visibility Wind Dir Wind Speed Gust Speed Precip Events Conditions
12:15 AM 66.2 °F - 66.2 °F 100% 30.02 in 3.0 mi Calm Calm - N/A   Clear
12:35 AM 66.2 °F - 66.2 °F 100% 30.02 in 5.0 mi Calm Calm - N/A   Clear
12:55 AM 66.2 °F - 66.2 °F 100% 30.02 in 8.0 mi Calm Calm - N/A   Clear
1:15 AM 66.2 °F - 66.2 °F 100% 30.02 in 3.0 mi Calm Calm - N/A   Clear
1:35 AM 66.2 °F - 66.2 °F 100% 30.01 in 8.0 mi Calm Calm - N/A   Clear
1:55 AM 64.4 °F - 64.4 °F 100% 30.00 in 3.0 mi Calm Calm - N/A   Clear
2:15 AM 66.2 °F - 66.2 °F 100% 30.00 in 0.5 mi Calm Calm - N/A Fog Fog
2:35 AM 64.4 °F - 64.4 °F 100% 29.99 in 7.0 mi Calm Calm - N/A   Clear
2:55 AM 64.4 °F - 64.4 °F 100% 29.99 in 1.0 mi Calm Calm - N/A   Clear
3:15 AM 64.4 °F - 64.4 °F 100% 29.98 in 4.0 mi Calm Calm - N/A   Clear
3:35 AM 64.4 °F - 64.4 °F 100% 29.97 in 5.0 mi Calm Calm - N/A   Clear
3:55 AM 64.4 °F - 64.4 °F 100% 29.97 in 6.0 mi Calm Calm - N/A   Clear
4:15 AM 64.4 °F - 64.4 °F 100% 29.97 in 5.0 mi Calm Calm - N/A   Clear
4:35 AM 64.4 °F - 64.4 °F 100% 29.96 in 5.0 mi Calm Calm - N/A   Clear
4:55 AM 64.4 °F - 64.4 °F 100% 29.96 in 3.0 mi Calm Calm - N/A   Clear
5:15 AM 64.4 °F - 64.4 °F 100% 29.95 in 4.0 mi Calm Calm - N/A   Clear
5:55 AM 62.6 °F - 62.6 °F 100% 29.96 in 3.0 mi Calm Calm - N/A   Clear
6:15 AM 62.6 °F - 62.6 °F 100% 29.96 in 2.0 mi Calm Calm - N/A   Clear
6:50 AM 62.6 °F - 62.6 °F 100% 29.96 in 7.0 mi Calm Calm - N/A   Clear
7:50 AM 62.6 °F - 62.6 °F 100% 29.97 in 10.0 mi Calm Calm - N/A   Clear
8:50 AM 68.0 °F - 68.0 °F 100% 29.98 in 10.0 mi Calm Calm - N/A   Clear
9:50 AM 73.4 °F - 71.6 °F 94% 29.99 in 10.0 mi Calm Calm - N/A   Clear
10:50 AM 78.8 °F - 73.4 °F 83% 30.00 in 10.0 mi Variable 4.6 mph - N/A   Partly Cloudy
11:50 AM 80.6 °F 85.4 °F 73.4 °F 79% 29.98 in 7.0 mi Calm Calm - N/A   Scattered Clouds
2:50 PM 82.4 °F 87.2 °F 71.6 °F 70% 29.87 in 10.0 mi WSW 5.8 mph - N/A   Scattered Clouds
3:50 PM 84.2 °F 87.3 °F 68.0 °F 58% 29.85 in 10.0 mi West 4.6 mph - N/A   Scattered Clouds
4:50 PM 82.4 °F 85.4 °F 68.0 °F 62% 29.84 in 10.0 mi Calm Calm - N/A   Partly Cloudy
5:50 PM 82.4 °F 85.4 °F 68.0 °F 62% 29.83 in 10.0 mi WNW 5.8 mph - N/A   Partly Cloudy
6:50 PM 77.0 °F - 71.6 °F 83% 29.83 in 10.0 mi Calm Calm - N/A   Partly Cloudy
7:50 PM 69.8 °F - 69.8 °F 100% 29.84 in 10.0 mi Calm Calm - N/A   Clear
8:55 PM 66.2 °F - 66.2 °F 100% 29.85 in 10.0 mi Calm Calm - N/A   Clear
9:15 PM 66.2 °F - 66.2 °F 100% 29.86 in 9.0 mi Calm Calm - N/A   Clear
9:35 PM 66.2 °F - 66.2 °F 100% 29.86 in 8.0 mi Calm Calm - N/A   Clear
9:55 PM 66.2 °F - 66.2 °F 100% 29.87 in 8.0 mi Calm Calm - N/A   Clear
10:15 PM 66.2 °F - 66.2 °F 100% 29.86 in 9.0 mi Calm Calm - N/A   Partly Cloudy
10:35 PM 66.2 °F - 66.2 °F 100% 29.87 in 8.0 mi Calm Calm - N/A   Partly Cloudy
10:55 PM 66.2 °F - 66.2 °F 100% 29.88 in 9.0 mi WNW 9.2 mph - N/A   Scattered Clouds
11:15 PM 71.6 °F - 68.0 °F 88% 29.87 in 10.0 mi Calm Calm - N/A   Mostly Cloudy
11:35 PM 71.6 °F - 68.0 °F 88% 29.87 in 10.0 mi Calm Calm - N/A   Scattered Clouds
11:55 PM 68.0 °F - 68.0 °F 100% 29.87 in 10.0 mi Calm Calm - N/A   Mostly Cloudy